User: anonymous
Location: PACMO
(41.3967°N, 90.3760°W)
Time: 03:17:59
(UTC-05:00)
Language:

BREEZE-M DEB (TANK) - Orbit

View from above orbital plane
View from above orbital plane
View from above satellite
View from above satellite

Ground track
Ground track

The orbit data is extracted from the following two-line orbital elements,

1 31863U 07032B   14208.10679802  .00000053  00000-0  94410-4 0  2635
2 31863 045.9269 185.6956 4996864 142.1867 266.5756 05.50698992141245
Epoch (UTC): 27 July 2014 02:33:47
Eccentricity: 0.4996864
inclination: 45.9269°
perigee height: 399 km
apogee height: 13935 km
right ascension of ascending node: 185.6956°
argument of perigee: 142.1867°
revolutions per day: 5.50698992
mean anomaly at epoch: 266.5756°
orbit number at epoch: 14124

The dashed part of the orbit path shows where the satellite is in the earth's shadow,  

DLR